{"data":{"norad_id":59618,"epoch":"2026-05-24T23:02:57.327072Z","epoch_age_seconds":81491,"freshness":"FRESH","line1":"1 59618U 24080T   26144.96038573  .00000759  00000+0  37091-4 0  9995","line2":"2 59618  43.0021 330.9413 0000658 288.0715  72.0065 15.27581332116155","mean_motion":15.27581332,"eccentricity":6.58e-5,"inclination_deg":43.0021,"raan_deg":330.9413,"arg_perigee_deg":288.0715,"mean_anomaly_deg":72.0065,"bstar":3.7091e-5,"rev_number":11615,"period_min":94.266666516189,"perigee_km":482.59364177269,"apogee_km":483.49657333804,"semimajor_km":6861.1821075554,"source":"CELESTRAK","updated_at":"2026-05-25T13:38:19.011263Z"}}